Location: Assche-ter-Heiden
(50.9174°N, 4.1574°E)
Time: 06:59:22
(UTC+00:00)

CENTAUR R/B - Pass Details

Date: 20 January 2020
Orbit: 766 x 1422 km, 63.5° (Epoch: 19 February)

Event Time Altitude Azimuth Distance (km) Brightness Sun altitude
Exits shadow 06:17:21 12° 311° (NW) 3,107 4.6 -12.0°
Maximum altitude 06:24:42 56° 237° (WSW) 1,583 3.4 -10.9°
Drops below altitude 10° 06:33:08 10° 163° (SSE) 3,507 5.9 -9.7°
Sets 06:36:10 0° 159° (SSE) 4,488 6.6 -9.2°
